| time (UTC) | temp C | wind direction | speed KPH | gust KPH | rain 1hr cm | rain 24hr cm | rain mn cm | humidity % | barometer mb |
| 20260505201134 | 26 | 220 | 9.7 | 11.3 | 0.00 | 0.00 | 0.00 | 37 | 1014.4 |
| 20260505200632 | 26 | 264 | 6.4 | 6.4 | 0.00 | 0.00 | 0.00 | 37 | 1014.5 |
| 20260505200129 | 26 | 171 | 9.7 | 11.3 | 0.00 | 0.00 | 0.00 | 37 | 1014.6 |
| 20260505195625 | 26 | 233 | 16.1 | 17.7 | 0.00 | 0.00 | 0.00 | 39 | 1014.6 |
| 20260505195123 | 26 | 230 | 6.4 | 9.7 | 0.00 | 0.00 | 0.00 | 38 | 1014.9 |
| 20260505194620 | 26 | 228 | 12.9 | 16.1 | 0.00 | 0.00 | 0.00 | 37 | 1014.7 |
| 20260505194115 | 26 | 235 | 11.3 | 14.5 | 0.00 | 0.00 | 0.00 | 38 | 1014.9 |
| 20260505193613 | 26 | 236 | 12.9 | 16.1 | 0.00 | 0.00 | 0.00 | 38 | 1014.8 |
| 20260505193109 | 26 | 232 | 8.0 | 9.7 | 0.00 | 0.00 | 0.00 | 36 | 1015.1 |
| 20260505192603 | 26 | 237 | 9.7 | 12.9 | 0.00 | 0.00 | 0.00 | 37 | 1015.2 |
| 20260505192059 | 26 | 228 | 19.3 | 24.1 | 0.00 | 0.00 | 0.00 | 35 | 1015.1 |
| 20260505191557 | 26 | 225 | 11.3 | 12.9 | 0.00 | 0.00 | 0.00 | 36 | 1014.9 |
| 20260505191055 | 26 | 243 | 12.9 | 14.5 | 0.00 | 0.00 | 0.00 | 36 | 1015.2 |
| 20260505190550 | 26 | 214 | 17.7 | 22.5 | 0.00 | 0.00 | 0.00 | 35 | 1015.1 |
| 20260505190046 | 26 | 221 | 9.7 | 12.9 | 0.00 | 0.00 | 0.00 | 34 | 1015.3 |
| 20260505185543 | 26 | 249 | 3.2 | 4.8 | 0.00 | 0.00 | 0.00 | 36 | 1015.2 |
| 20260505185039 | 26 | 224 | 12.9 | 14.5 | 0.00 | 0.00 | 0.00 | 36 | 1015.1 |
| 20260505184536 | 26 | 245 | 6.4 | 6.4 | 0.00 | 0.00 | 0.00 | 35 | 1015.4 |
| 20260505184033 | 26 | 183 | 4.8 | 9.7 | 0.00 | 0.00 | 0.00 | 37 | 1015.3 |
| 20260505183529 | 25 | 167 | 8.0 | 11.3 | 0.00 | 0.00 | 0.00 | 37 | 1015.4 |
| 20260505183027 | 26 | 203 | 12.9 | 14.5 | 0.00 | 0.00 | 0.00 | 36 | 1015.7 |
| 20260505182523 | 26 | 219 | 12.9 | 14.5 | 0.00 | 0.00 | 0.00 | 36 | 1015.8 |
| 20260505182020 | 25 | 226 | 8.0 | 9.7 | 0.00 | 0.00 | 0.00 | 37 | 1015.9 |
| 20260505181517 | 25 | 210 | 8.0 | 11.3 | 0.00 | 0.00 | 0.00 | 38 | 1016.1 |
| 20260505181014 | 25 | 239 | 11.3 | 14.5 | 0.00 | 0.00 | 0.00 | 38 | 1016.2 |
| 20260505180509 | 26 | 197 | 6.4 | 9.7 | 0.00 | 0.00 | 0.00 | 37 | 1016.1 |
| 20260505180008 | 25 | 188 | 14.5 | 16.1 | 0.00 | 0.00 | 0.00 | 38 | 1016.3 |
| 20260505175502 | 25 | 235 | 9.7 | 11.3 | 0.00 | 0.00 | 0.00 | 37 | 1016.2 |
| 20260505174959 | 25 | 254 | 9.7 | 12.9 | 0.00 | 0.00 | 0.00 | 37 | 1016.3 |
| 20260505174457 | 26 | 257 | 11.3 | 12.9 | 0.00 | 0.00 | 0.00 | 36 | 1016.5 |
| 20260505173952 | 26 | 230 | 11.3 | 12.9 | 0.00 | 0.00 | 0.00 | 36 | 1016.4 |
| 20260505173449 | 25 | 197 | 11.3 | 12.9 | 0.00 | 0.00 | 0.00 | 36 | 1016.3 |
| 20260505172946 | 25 | 249 | 9.7 | 12.9 | 0.00 | 0.00 | 0.00 | 36 | 1016.2 |
| 20260505172445 | 25 | 212 | 11.3 | 12.9 | 0.00 | 0.00 | 0.00 | 35 | 1016.4 |
| 20260505171944 | 25 | 229 | 16.1 | 17.7 | 0.00 | 0.00 | 0.00 | 36 | 1016.2 |
| 20260505171441 | 25 | 147 | 9.7 | 11.3 | 0.00 | 0.00 | 0.00 | 37 | 1016.1 |
| 20260505170937 | 25 | 224 | 6.4 | 6.4 | 0.00 | 0.00 | 0.00 | 38 | 1016.2 |
| 20260505170434 | 24 | 214 | 16.1 | 16.1 | 0.00 | 0.00 | 0.00 | 38 | 1016.0 |
| 20260505165930 | 25 | 235 | 12.9 | 17.7 | 0.00 | 0.00 | 0.00 | 38 | 1016.0 |
| 20260505165426 | 24 | 244 | 6.4 | 6.4 | 0.00 | 0.00 | 0.00 | 37 | 1016.4 |
| 20260505164921 | 25 | 216 | 14.5 | 16.1 | 0.00 | 0.00 | 0.00 | 40 | 1016.4 |
| 20260505164413 | 25 | 232 | 12.9 | 17.7 | 0.00 | 0.00 | 0.00 | 41 | 1016.6 |
| 20260505163911 | 24 | 179 | 19.3 | 25.7 | 0.00 | 0.00 | 0.00 | 40 | 1016.4 |
| 20260505163410 | 24 | 221 | 20.9 | 24.1 | 0.00 | 0.00 | 0.00 | 39 | 1016.4 |
| 20260505162908 | 24 | 209 | 14.5 | 14.5 | 0.00 | 0.00 | 0.00 | 44 | 1016.6 |
| 20260505162403 | 23 | 220 | 12.9 | 14.5 | 0.00 | 0.00 | 0.00 | 45 | 1016.6 |
| 20260505161900 | 23 | 255 | 6.4 | 9.7 | 0.00 | 0.00 | 0.00 | 43 | 1017.0 |
| 20260505161357 | 24 | 223 | 9.7 | 12.9 | 0.00 | 0.00 | 0.00 | 42 | 1016.8 |
| 20260505160854 | 23 | 231 | 6.4 | 6.4 | 0.00 | 0.00 | 0.00 | 42 | 1017.0 |
| 20260505160353 | 23 | 197 | 8.0 | 11.3 | 0.00 | 0.00 | 0.00 | 41 | 1017.0 |
| 20260505153332 | 23 | 182 | 4.8 | 6.4 | 0.00 | 0.00 | 0.00 | 51 | 1016.9 |
| 20260505152829 | 23 | 237 | 4.8 | 4.8 | 0.00 | 0.00 | 0.00 | 54 | 1017.3 |
| 20260505152326 | 22 | 249 | 3.2 | 4.8 | 0.00 | 0.00 | 0.00 | 54 | 1017.2 |
| 20260505151825 | 22 | 252 | 3.2 | 3.2 | 0.00 | 0.00 | 0.00 | 54 | 1017.3 |
| 20260505151322 | 21 | 245 | 8.0 | 11.3 | 0.00 | 0.00 | 0.00 | 55 | 1017.3 |
| 20260505150819 | 22 | 255 | 9.7 | 12.9 | 0.00 | 0.00 | 0.00 | 55 | 1017.2 |
| 20260505150316 | 22 | 251 | 9.7 | 12.9 | 0.00 | 0.00 | 0.00 | 55 | 1017.3 |
| 20260505140240 | 20 | 222 | 9.7 | 11.3 | 0.00 | 0.00 | 0.00 | 69 | 1016.8 |
| 20260505130204 | 17 | 214 | 9.7 | 12.9 | 0.00 | 0.00 | 0.00 | 78 | 1016.5 |
| 20260505124654 | 16 | 198 | 6.4 | 9.7 | 0.00 | 0.00 | 0.00 | 80 | 1016.6 |
| 20260505124151 | 16 | 220 | 8.0 | 9.7 | 0.00 | 0.00 | 0.00 | 80 | 1016.6 |
| 20260505123648 | 15 | 199 | 1.6 | 1.6 | 0.00 | 0.00 | 0.00 | 81 | 1016.7 |
| 20260505123145 | 15 | 214 | 3.2 | 4.8 | 0.00 | 0.00 | 0.00 | 82 | 1016.5 |
| 20260505122641 | 15 | 192 | 4.8 | 4.8 | 0.00 | 0.00 | 0.00 | 82 | 1016.4 |
| 20260505122138 | 15 | 225 | 3.2 | 3.2 | 0.00 | 0.00 | 0.00 | 83 | 1016.4 |
| 20260505121634 | 14 | 226 | 3.2 | 3.2 | 0.00 | 0.00 | 0.00 | 83 | 1016.5 |
| 20260505121131 | 14 | 240 | 3.2 | 4.8 | 0.00 | 0.00 | 0.00 | 83 | 1016.4 |
| 20260505120627 | 14 | 237 | 3.2 | 3.2 | 0.00 | 0.00 | 0.00 | 83 | 1016.2 |
| 20260505120123 | 15 | 245 | 0.0 | 0.0 | 0.00 | 0.00 | 0.00 | 80 | 1016.2 |
| 20260505115617 | 15 | 218 | 0.0 | 1.6 | 0.00 | 0.00 | 0.00 | 81 | 1016.1 |
| 20260505115115 | 15 | 231 | 0.0 | 0.0 | 0.00 | 0.00 | 0.00 | 79 | 1016.0 |
| 20260505114612 | 13 | 234 | 0.0 | 0.0 | 0.00 | 0.00 | 0.00 | 86 | 1016.1 |
| 20260505114108 | 12 | 239 | 0.0 | 0.0 | 0.00 | 0.00 | 0.00 | 87 | 1016.1 |
| 20260505113605 | 12 | 239 | 0.0 | 0.0 | 0.00 | 0.00 | 0.00 | 89 | 1016.0 |
| 20260505113101 | 12 | 254 | 0.0 | 0.0 | 0.00 | 0.00 | 0.00 | 92 | 1016.1 |
| 20260505112558 | 11 | 254 | 0.0 | 0.0 | 0.00 | 0.00 | 0.00 | 94 | 1016.1 |
| 20260505112056 | 10 | 255 | 0.0 | 0.0 | 0.00 | 0.00 | 0.00 | 94 | 1016.1 |
| 20260505111555 | 10 | 254 | 0.0 | 0.0 | 0.00 | 0.00 | 0.00 | 95 | 1016.1 |
| 20260505111051 | 10 | 254 | 0.0 | 0.0 | 0.00 | 0.00 | 0.00 | 95 | 1015.9 |
| 20260505110548 | 10 | 254 | 0.0 | 0.0 | 0.00 | 0.00 | 0.00 | 95 | 1016.0 |
| 20260505102021 | 9 | 257 | 0.0 | 0.0 | 0.00 | 0.00 | 0.00 | 94 | 1015.8 |
| 20260505101519 | 10 | 262 | 0.0 | 0.0 | 0.00 | 0.00 | 0.00 | 93 | 1015.6 |
| 20260505101015 | 10 | 252 | 0.0 | 0.0 | 0.00 | 0.00 | 0.00 | 93 | 1015.6 |
| 20260505100507 | 10 | 252 | 0.0 | 0.0 | 0.00 | 0.00 | 0.00 | 92 | 1015.5 |
| 20260505100004 | 10 | 252 | 0.0 | 0.0 | 0.00 | 0.00 | 0.00 | 92 | 1015.7 |
| 20260505095500 | 10 | 252 | 0.0 | 0.0 | 0.00 | 0.00 | 0.00 | 92 | 1015.6 |
| 20260505094956 | 10 | 252 | 0.0 | 0.0 | 0.00 | 0.00 | 0.00 | 91 | 1015.7 |
| 20260505094453 | 10 | 252 | 0.0 | 0.0 | 0.00 | 0.00 | 0.00 | 90 | 1015.6 |
| 20260505093949 | 10 | 252 | 0.0 | 0.0 | 0.00 | 0.00 | 0.00 | 89 | 1015.5 |
| 20260505093446 | 11 | 251 | 0.0 | 0.0 | 0.00 | 0.00 | 0.00 | 89 | 1015.5 |
| 20260505092943 | 11 | 251 | 0.0 | 0.0 | 0.00 | 0.00 | 0.00 | 87 | 1015.6 |
| 20260505092441 | 12 | 246 | 0.0 | 0.0 | 0.00 | 0.00 | 0.00 | 85 | 1015.4 |
| 20260505091938 | 12 | 231 | 0.0 | 1.6 | 0.00 | 0.00 | 0.00 | 83 | 1015.3 |
| 20260505091436 | 12 | 230 | 1.6 | 1.6 | 0.00 | 0.00 | 0.00 | 84 | 1015.5 |
| 20260505090933 | 12 | 201 | 1.6 | 1.6 | 0.00 | 0.00 | 0.00 | 84 | 1015.4 |
| 20260505090432 | 12 | 239 | 0.0 | 0.0 | 0.00 | 0.00 | 0.00 | 82 | 1015.5 |
| 20260505085928 | 13 | 195 | 1.6 | 1.6 | 0.00 | 0.00 | 0.00 | 82 | 1015.5 |
| 20260505085426 | 13 | 231 | 0.0 | 0.0 | 0.00 | 0.00 | 0.00 | 81 | 1015.4 |
| 20260505084925 | 13 | 226 | 0.0 | 0.0 | 0.00 | 0.00 | 0.00 | 80 | 1015.3 |
| 20260505084422 | 13 | 193 | 3.2 | 3.2 | 0.00 | 0.00 | 0.00 | 80 | 1015.4 |
| 20260505083920 | 13 | 206 | 1.6 | 1.6 | 0.00 | 0.00 | 0.00 | 80 | 1015.2 |
| 20260505083417 | 13 | 192 | 3.2 | 3.2 | 0.00 | 0.00 | 0.00 | 80 | 1015.3 |
| 20260505082913 | 13 | 228 | 6.4 | 6.4 | 0.00 | 0.00 | 0.00 | 80 | 1015.4 |
| 20260505082409 | 13 | 214 | 1.6 | 1.6 | 0.00 | 0.00 | 0.00 | 79 | 1015.4 |
| 20260505081906 | 13 | 228 | 3.2 | 3.2 | 0.00 | 0.00 | 0.00 | 79 | 1015.5 |
| 20260505081403 | 13 | 195 | 3.2 | 4.8 | 0.00 | 0.00 | 0.00 | 78 | 1015.4 |
| 20260505080859 | 13 | 205 | 3.2 | 4.8 | 0.00 | 0.00 | 0.00 | 78 | 1015.3 |
| 20260505080356 | 13 | 201 | 3.2 | 4.8 | 0.00 | 0.00 | 0.00 | 77 | 1015.4 |
| 20260505075851 | 13 | 224 | 3.2 | 4.8 | 0.00 | 0.00 | 0.00 | 77 | 1015.3 |
| 20260505075348 | 13 | 164 | 3.2 | 3.2 | 0.00 | 0.00 | 0.00 | 77 | 1015.4 |
| 20260505074845 | 13 | 230 | 3.2 | 3.2 | 0.00 | 0.00 | 0.00 | 76 | 1015.3 |
| 20260505074342 | 14 | 198 | 4.8 | 4.8 | 0.00 | 0.00 | 0.00 | 76 | 1015.4 |
| 20260505073840 | 14 | 213 | 4.8 | 4.8 | 0.00 | 0.00 | 0.00 | 75 | 1015.4 |
| 20260505073337 | 14 | 198 | 1.6 | 3.2 | 0.00 | 0.00 | 0.00 | 75 | 1015.4 |
| 20260505072834 | 14 | 239 | 4.8 | 4.8 | 0.00 | 0.00 | 0.00 | 74 | 1015.2 |
| 20260505072330 | 14 | 214 | 3.2 | 4.8 | 0.00 | 0.00 | 0.00 | 74 | 1015.1 |
| 20260505071826 | 14 | 204 | 6.4 | 6.4 | 0.00 | 0.00 | 0.00 | 73 | 1015.3 |
| 20260505071323 | 14 | 202 | 4.8 | 4.8 | 0.00 | 0.00 | 0.00 | 73 | 1015.0 |
| 20260505070821 | 14 | 203 | 4.8 | 4.8 | 0.00 | 0.00 | 0.00 | 73 | 1015.1 |
| 20260505070318 | 15 | 222 | 1.6 | 3.2 | 0.00 | 0.00 | 0.00 | 73 | 1015.1 |
| 20260505065812 | 15 | 224 | 3.2 | 3.2 | 0.00 | 0.00 | 0.00 | 72 | 1015.2 |
| 20260505065309 | 15 | 196 | 3.2 | 4.8 | 0.00 | 0.00 | 0.00 | 72 | 1015.1 |
| 20260505064807 | 15 | 232 | 1.6 | 3.2 | 0.00 | 0.00 | 0.00 | 71 | 1015.1 |
| 20260505064303 | 15 | 172 | 4.8 | 4.8 | 0.00 | 0.00 | 0.00 | 71 | 1015.2 |
| 20260505063802 | 15 | 163 | 3.2 | 3.2 | 0.00 | 0.00 | 0.00 | 71 | 1015.3 |
| 20260505063258 | 15 | 212 | 4.8 | 4.8 | 0.00 | 0.00 | 0.00 | 70 | 1015.1 |
| 20260505062754 | 15 | 220 | 4.8 | 4.8 | 0.00 | 0.00 | 0.00 | 70 | 1015.2 |
| 20260505062252 | 15 | 165 | 4.8 | 6.4 | 0.00 | 0.00 | 0.00 | 70 | 1015.1 |
| 20260505061748 | 15 | 216 | 3.2 | 3.2 | 0.00 | 0.00 | 0.00 | 70 | 1015.1 |
| 20260505061246 | 15 | 203 | 3.2 | 3.2 | 0.00 | 0.00 | 0.00 | 69 | 1015.2 |
| 20260505060743 | 15 | 201 | 4.8 | 4.8 | 0.00 | 0.00 | 0.00 | 69 | 1015.3 |
| 20260505060241 | 15 | 236 | 3.2 | 3.2 | 0.00 | 0.00 | 0.00 | 68 | 1015.2 |
| 20260505055736 | 15 | 216 | 6.4 | 6.4 | 0.00 | 0.00 | 0.00 | 68 | 1015.3 |
| 20260505055232 | 15 | 220 | 3.2 | 3.2 | 0.00 | 0.00 | 0.00 | 67 | 1015.3 |
| 20260505054730 | 15 | 216 | 1.6 | 3.2 | 0.00 | 0.00 | 0.00 | 67 | 1015.3 |
| 20260505054227 | 15 | 178 | 3.2 | 4.8 | 0.00 | 0.00 | 0.00 | 66 | 1015.3 |
| 20260505053726 | 15 | 167 | 3.2 | 4.8 | 0.00 | 0.00 | 0.00 | 66 | 1015.7 |
| 20260505053221 | 15 | 158 | 6.4 | 6.4 | 0.00 | 0.00 | 0.00 | 65 | 1015.7 |
| 20260505052719 | 15 | 216 | 3.2 | 3.2 | 0.00 | 0.00 | 0.00 | 64 | 1015.6 |
| 20260505052216 | 15 | 209 | 1.6 | 1.6 | 0.00 | 0.00 | 0.00 | 64 | 1015.7 |
| 20260505051713 | 15 | 202 | 3.2 | 3.2 | 0.00 | 0.00 | 0.00 | 64 | 1015.7 |
| 20260505051211 | 15 | 200 | 3.2 | 3.2 | 0.00 | 0.00 | 0.00 | 63 | 1015.6 |
| 20260505050703 | 15 | 209 | 3.2 | 3.2 | 0.00 | 0.00 | 0.00 | 64 | 1015.7 |
| 20260505050202 | 15 | 185 | 3.2 | 3.2 | 0.00 | 0.00 | 0.00 | 64 | 1015.6 |
| 20260505041636 | 12 | 257 | 0.0 | 0.0 | 0.00 | 0.00 | 0.00 | 80 | 1015.5 |
| 20260505041133 | 12 | 257 | 0.0 | 0.0 | 0.00 | 0.00 | 0.00 | 79 | 1015.5 |
| 20260505040630 | 12 | 258 | 0.0 | 0.0 | 0.00 | 0.00 | 0.00 | 78 | 1015.6 |
| 20260505040128 | 12 | 257 | 0.0 | 0.0 | 0.00 | 0.00 | 0.00 | 78 | 1015.5 |
| 20260505035624 | 12 | 258 | 0.0 | 0.0 | 0.00 | 0.00 | 0.00 | 79 | 1015.7 |
| 20260505035120 | 13 | 258 | 0.0 | 0.0 | 0.00 | 0.00 | 0.00 | 76 | 1015.5 |
| 20260505034617 | 13 | 256 | 0.0 | 0.0 | 0.00 | 0.00 | 0.00 | 75 | 1015.4 |
| 20260505034114 | 13 | 257 | 0.0 | 0.0 | 0.00 | 0.00 | 0.00 | 73 | 1015.6 |
| 20260505033610 | 15 | 251 | 0.0 | 0.0 | 0.00 | 0.00 | 0.00 | 71 | 1015.9 |
| 20260505033109 | 15 | 243 | 0.0 | 0.0 | 0.00 | 0.00 | 0.00 | 68 | 1015.8 |
| 20260505032606 | 15 | 244 | 0.0 | 0.0 | 0.00 | 0.00 | 0.00 | 67 | 1015.6 |
| 20260505032102 | 16 | 246 | 0.0 | 0.0 | 0.00 | 0.00 | 0.00 | 65 | 1015.7 |
| 20260505031600 | 16 | 237 | 0.0 | 0.0 | 0.00 | 0.00 | 0.00 | 62 | 1015.5 |
| 20260505031056 | 17 | 235 | 0.0 | 0.0 | 0.00 | 0.00 | 0.00 | 63 | 1015.8 |
| 20260505030553 | 16 | 222 | 0.0 | 0.0 | 0.00 | 0.00 | 0.00 | 62 | 1015.6 |
| 20260505030049 | 16 | 248 | 0.0 | 0.0 | 0.00 | 0.00 | 0.00 | 64 | 1015.6 |
| 20260505025545 | 16 | 248 | 0.0 | 0.0 | 0.00 | 0.00 | 0.00 | 62 | 1015.8 |
| 20260505025044 | 17 | 251 | 0.0 | 0.0 | 0.00 | 0.00 | 0.00 | 60 | 1015.6 |
| 20260505024541 | 18 | 238 | 0.0 | 0.0 | 0.00 | 0.00 | 0.00 | 57 | 1015.6 |
| 20260505024038 | 18 | 231 | 1.6 | 3.2 | 0.00 | 0.00 | 0.00 | 51 | 1015.5 |
| 20260505023535 | 18 | 232 | 1.6 | 3.2 | 0.00 | 0.00 | 0.00 | 51 | 1015.5 |
| 20260505023033 | 18 | 239 | 1.6 | 3.2 | 0.00 | 0.00 | 0.00 | 50 | 1015.4 |
| 20260505022530 | 19 | 207 | 3.2 | 3.2 | 0.00 | 0.00 | 0.00 | 49 | 1015.7 |
| 20260505022027 | 19 | 174 | 6.4 | 6.4 | 0.00 | 0.00 | 0.00 | 49 | 1015.6 |
| 20260505021524 | 19 | 211 | 3.2 | 3.2 | 0.00 | 0.00 | 0.00 | 49 | 1015.5 |
| 20260505021020 | 19 | 183 | 3.2 | 3.2 | 0.00 | 0.00 | 0.00 | 49 | 1015.5 |
| 20260505020520 | 19 | 223 | 3.2 | 4.8 | 0.00 | 0.00 | 0.00 | 48 | 1015.2 |
| 20260505020018 | 19 | 235 | 3.2 | 3.2 | 0.00 | 0.00 | 0.00 | 47 | 1015.5 |
| 20260505015515 | 20 | 229 | 4.8 | 6.4 | 0.00 | 0.00 | 0.00 | 47 | 1015.6 |
| 20260505015011 | 20 | 223 | 4.8 | 4.8 | 0.00 | 0.00 | 0.00 | 46 | 1015.5 |
| 20260505014508 | 20 | 224 | 3.2 | 4.8 | 0.00 | 0.00 | 0.00 | 46 | 1015.3 |
| 20260505014006 | 20 | 211 | 3.2 | 4.8 | 0.00 | 0.00 | 0.00 | 46 | 1015.2 |
| 20260505013503 | 20 | 194 | 3.2 | 3.2 | 0.00 | 0.00 | 0.00 | 45 | 1015.1 |
| 20260505013000 | 20 | 210 | 3.2 | 3.2 | 0.00 | 0.00 | 0.00 | 44 | 1015.1 |
| 20260505012458 | 20 | 217 | 3.2 | 3.2 | 0.00 | 0.00 | 0.00 | 44 | 1015.1 |
| 20260505011954 | 20 | 182 | 6.4 | 6.4 | 0.00 | 0.00 | 0.00 | 43 | 1015.1 |
| 20260505011450 | 20 | 201 | 3.2 | 4.8 | 0.00 | 0.00 | 0.00 | 43 | 1015.0 |
| 20260505010947 | 20 | 180 | 4.8 | 4.8 | 0.00 | 0.00 | 0.00 | 42 | 1015.1 |
| 20260505010443 | 20 | 205 | 3.2 | 4.8 | 0.00 | 0.00 | 0.00 | 42 | 1015.1 |
| 20260505005939 | 20 | 225 | 1.6 | 3.2 | 0.00 | 0.00 | 0.00 | 43 | 1015.0 |
| 20260505005436 | 20 | 219 | 1.6 | 1.6 | 0.00 | 0.00 | 0.00 | 45 | 1014.9 |
| 20260505004934 | 18 | 236 | 0.0 | 0.0 | 0.00 | 0.00 | 0.00 | 61 | 1014.8 |
| 20260505004430 | 18 | 256 | 0.0 | 0.0 | 0.00 | 0.00 | 0.00 | 63 | 1014.7 |
| 20260505003927 | 18 | 257 | 0.0 | 0.0 | 0.00 | 0.00 | 0.00 | 62 | 1014.7 |
| 20260505003424 | 19 | 257 | 0.0 | 0.0 | 0.00 | 0.00 | 0.00 | 59 | 1014.7 |
| 20260505002920 | 21 | 249 | 0.0 | 0.0 | 0.00 | 0.00 | 0.00 | 52 | 1014.7 |
| 20260505002417 | 21 | 242 | 1.6 | 1.6 | 0.00 | 0.00 | 0.00 | 40 | 1014.6 |
| 20260505001915 | 22 | 235 | 1.6 | 1.6 | 0.00 | 0.00 | 0.00 | 41 | 1014.6 |
| 20260505001413 | 22 | 199 | 1.6 | 3.2 | 0.00 | 0.00 | 0.00 | 39 | 1014.5 |
| 20260505000910 | 22 | 232 | 1.6 | 3.2 | 0.00 | 0.00 | 0.00 | 38 | 1014.5 |
| 20260505000408 | 22 | 210 | 3.2 | 3.2 | 0.00 | 0.00 | 0.00 | 38 | 1014.5 |
| 20260504235904 | 22 | 220 | 3.2 | 3.2 | 0.00 | 0.00 | 0.00 | 38 | 1014.2 |
| 20260504235401 | 22 | 220 | 3.2 | 4.8 | 0.00 | 0.00 | 0.00 | 38 | 1014.3 |
| 20260504234857 | 23 | 227 | 3.2 | 4.8 | 0.00 | 0.00 | 0.00 | 38 | 1014.3 |
| 20260504234355 | 23 | 231 | 1.6 | 3.2 | 0.00 | 0.00 | 0.00 | 39 | 1014.2 |
| 20260504233851 | 23 | 186 | 3.2 | 3.2 | 0.00 | 0.00 | 0.00 | 39 | 1014.3 |
| 20260504233347 | 23 | 233 | 3.2 | 3.2 | 0.00 | 0.00 | 0.00 | 40 | 1014.3 |
| 20260504232844 | 23 | 247 | 4.8 | 4.8 | 0.00 | 0.00 | 0.00 | 39 | 1014.2 |
| 20260504232341 | 23 | 229 | 3.2 | 3.2 | 0.00 | 0.00 | 0.00 | 39 | 1014.4 |
| 20260504231838 | 24 | 233 | 4.8 | 6.4 | 0.00 | 0.00 | 0.00 | 39 | 1014.3 |
| 20260504231334 | 24 | 200 | 3.2 | 3.2 | 0.00 | 0.00 | 0.00 | 37 | 1014.1 |
| 20260504230830 | 24 | 227 | 3.2 | 4.8 | 0.00 | 0.00 | 0.00 | 37 | 1014.1 |
| 20260504230329 | 25 | 236 | 3.2 | 3.2 | 0.00 | 0.00 | 0.00 | 36 | 1014.3 |
| 20260504225827 | 25 | 232 | 3.2 | 3.2 | 0.00 | 0.00 | 0.00 | 36 | 1014.1 |
| 20260504225323 | 25 | 221 | 6.4 | 6.4 | 0.00 | 0.00 | 0.00 | 34 | 1014.0 |
| 20260504224821 | 25 | 239 | 3.2 | 4.8 | 0.00 | 0.00 | 0.00 | 35 | 1014.1 |
| 20260504224317 | 25 | 207 | 3.2 | 3.2 | 0.00 | 0.00 | 0.00 | 34 | 1014.1 |
| 20260504223814 | 25 | 233 | 6.4 | 6.4 | 0.00 | 0.00 | 0.00 | 33 | 1014.2 |
| 20260504223310 | 25 | 220 | 3.2 | 4.8 | 0.00 | 0.00 | 0.00 | 32 | 1014.2 |
| 20260504222807 | 25 | 235 | 4.8 | 4.8 | 0.00 | 0.00 | 0.00 | 32 | 1014.2 |
| 20260504222304 | 25 | 246 | 6.4 | 6.4 | 0.00 | 0.00 | 0.00 | 32 | 1014.1 |
| 20260504221801 | 25 | 224 | 4.8 | 6.4 | 0.00 | 0.00 | 0.00 | 32 | 1014.1 |
| 20260504221258 | 25 | 237 | 4.8 | 6.4 | 0.00 | 0.00 | 0.00 | 32 | 1014.0 |
| 20260504220755 | 25 | 238 | 4.8 | 6.4 | 0.00 | 0.00 | 0.00 | 32 | 1014.2 |
| 20260504220252 | 25 | 201 | 9.7 | 12.9 | 0.00 | 0.00 | 0.00 | 30 | 1014.0 |
| 20260504215749 | 25 | 227 | 6.4 | 6.4 | 0.00 | 0.00 | 0.00 | 32 | 1014.1 |
| 20260504215245 | 25 | 211 | 6.4 | 6.4 | 0.00 | 0.00 | 0.00 | 30 | 1014.1 |
| 20260504214741 | 25 | 224 | 9.7 | 11.3 | 0.00 | 0.00 | 0.00 | 30 | 1014.3 |
| 20260504214238 | 25 | 228 | 9.7 | 11.3 | 0.00 | 0.00 | 0.00 | 30 | 1014.1 |
| 20260504213735 | 26 | 233 | 3.2 | 4.8 | 0.00 | 0.00 | 0.00 | 30 | 1014.1 |
| 20260504213231 | 25 | 219 | 6.4 | 9.7 | 0.00 | 0.00 | 0.00 | 31 | 1014.2 |
| 20260504212728 | 25 | 239 | 8.0 | 9.7 | 0.00 | 0.00 | 0.00 | 32 | 1014.0 |
| 20260504212225 | 25 | 198 | 6.4 | 9.7 | 0.00 | 0.00 | 0.00 | 32 | 1014.1 |
| 20260504211723 | 25 | 216 | 9.7 | 11.3 | 0.00 | 0.00 | 0.00 | 31 | 1014.1 |
| 20260504211218 | 25 | 179 | 9.7 | 9.7 | 0.00 | 0.00 | 0.00 | 31 | 1014.0 |
| 20260504210716 | 25 | 244 | 9.7 | 11.3 | 0.00 | 0.00 | 0.00 | 32 | 1014.0 |
| 20260504210213 | 26 | 238 | 8.0 | 11.3 | 0.00 | 0.00 | 0.00 | 31 | 1014.1 |
| 20260504205710 | 26 | 237 | 9.7 | 12.9 | 0.00 | 0.00 | 0.00 | 31 | 1014.1 |
| 20260504205207 | 26 | 236 | 11.3 | 14.5 | 0.00 | 0.00 | 0.00 | 32 | 1014.1 |
| 20260504204706 | 25 | 239 | 1.6 | 1.6 | 0.00 | 0.00 | 0.00 | 33 | 1014.0 |
| 20260504204204 | 25 | 209 | 11.3 | 14.5 | 0.00 | 0.00 | 0.00 | 32 | 1014.1 |
| 20260504203703 | 25 | 204 | 9.7 | 11.3 | 0.00 | 0.00 | 0.00 | 31 | 1014.2 |
| 20260504203200 | 26 | 209 | 6.4 | 6.4 | 0.00 | 0.00 | 0.00 | 33 | 1014.4 |
| 20260504202700 | 25 | 224 | 8.0 | 9.7 | 0.00 | 0.00 | 0.00 | 32 | 1014.3 |
| 20260504202157 | 25 | 205 | 8.0 | 11.3 | 0.00 | 0.00 | 0.00 | 33 | 1014.3 |
| 20260504201654 | 25 | 211 | 8.0 | 9.7 | 0.00 | 0.00 | 0.00 | 33 | 1014.4 |